Weather History for Songea, Tanzania

Change the Weather History Date:

Sunday, March 16, 2014

  Actual Average Record
Temperature  
Mean Temperature 70 °F -  
Max Temperature 82 °F - - ()
Min Temperature 59 °F - - ()
Cooling Degree Days 6    
Growing Degree Days 20 (Base 50)    
Moisture  
Dew Point 66 °F    
Average Humidity 80    
Maximum Humidity 100    
Minimum Humidity 55    
Precipitation  
Precipitation 0.00 in 0.23 in - ()
Sea Level Pressure  
Sea Level Pressure 30.08 in    
Wind  
Wind Speed 2 mph ()    
Max Wind Speed 14 mph    
Max Gust Speed -    
Visibility 9.6 miles    
Events Fog , Thunderstorm    
T = Trace of Precipitation, MM = Missing Value Source: Averaged Metar Reports

Daily Weather History Graph

Daily Weather History Graph

Search for Another Location

Airport:

Trip Planner

Search our weather history database for the weather conditions in past years. The results will help you decide how hot, cold, wet, or windy it might be!

Date:

Astronomy

Mar. 16, 2014 Rise Set
Actual Time 6:41 AM EAT 6:50 PM EAT
Civil Twilight 6:20 AM EAT 7:11 PM EAT
Nautical Twilight 5:56 AM EAT 7:36 PM EAT
Astronomical Twilight 5:31 AM EAT 8:00 PM EAT
Moon 6:38 PM EAT (3/16) 6:15 AM EAT (3/16)
Length of Visible Light 12h 51m
Length of Day
12h 09m
Full, 100% of the Moon is Illuminated
Mar 16
Full
Mar 16
Full
Mar 24
Last Quarter
Mar 30
New
Apr 7
First Quarter

Hourly Weather History & Observations

Time (EAT) Temp. Heat Index Dew Point Humidity Pressure Visibility Wind Dir Wind Speed Gust Speed Precip Events Conditions
12:00 AM 68 °F - 67 °F 95%  in 19 mi Calm Calm - -   Partly Cloudy
12:00 AM 68.0 °F - 66.2 °F 94% 30.15 in 6.2 mi Calm Calm - N/A   Mostly Cloudy
1:00 AM 68.0 °F - 66.2 °F 94% 30.15 in 6.2 mi Calm Calm - N/A   Mostly Cloudy
2:00 AM 68.0 °F - 66.2 °F 94% 30.15 in 6.2 mi Calm Calm - N/A   Mostly Cloudy
3:00 AM 67 °F - 66 °F 96%  in 19 mi Calm Calm - - Fog Partial Fog
4:00 AM 66.2 °F - 66.2 °F 100% 30.09 in 6.2 mi Calm Calm - N/A Fog Light Fog
5:00 AM 66.2 °F - 66.2 °F 100% 30.09 in 6.2 mi Calm Calm - N/A   Mostly Cloudy
6:00 AM 66 °F - 65 °F 94%  in 19 mi Calm Calm - -   Partly Cloudy
6:00 AM 66.2 °F - 64.4 °F 94% 30.06 in 6.2 mi Calm Calm - N/A   Mostly Cloudy
7:00 AM 66.2 °F - 64.4 °F 94% 30.06 in 6.2 mi Calm Calm - N/A   Scattered Clouds
8:00 AM 68.0 °F - 66.2 °F 94% 30.09 in 6.2 mi Calm Calm - N/A   Scattered Clouds
9:00 AM 72 °F - 66 °F 77%  in 19 mi Calm Calm - -   Scattered Clouds
9:00 AM 71.6 °F - 66.2 °F 83% 30.09 in 6.2 mi Calm Calm - N/A   Scattered Clouds
10:00 AM 75.2 °F - 66.2 °F 73% 30.15 in 6.2 mi Calm Calm - N/A   Scattered Clouds
11:00 AM 77.0 °F - 66.2 °F 69% 30.15 in 6.2 mi Calm Calm - N/A   Partly Cloudy
12:00 PM 77 °F - 64 °F 56%  in 19 mi ESE 11.5 mph - -   Mostly Cloudy
12:00 PM 77.0 °F - 64.4 °F 65% 30.09 in 6.2 mi ESE 11.5 mph - N/A   Scattered Clouds
1:00 PM 77.0 °F - 66.2 °F 69% 30.09 in 6.2 mi SSW 8.1 mph - N/A   Scattered Clouds
2:00 PM 77.0 °F - 68.0 °F 74% 30.06 in 6.2 mi Calm Calm - N/A   Partly Cloudy
3:00 PM 79 °F - 65 °F 55%  in 19 mi NNW 5.8 mph - -   Mostly Cloudy
3:00 PM 78.8 °F - 66.2 °F 65% 30.04 in 6.2 mi NNW 5.8 mph - N/A   Partly Cloudy
4:00 PM 80.6 °F 82.7 °F 66.2 °F 61% 30.01 in 6.2 mi West 9.2 mph - N/A   Partly Cloudy
5:00 PM 80.6 °F 83.2 °F 68.0 °F 65% 30.01 in 6.2 mi SE 13.8 mph - N/A   Scattered Clouds
6:00 PM 77 °F - 67 °F 64%  in 19 mi SE 8.1 mph - - Thunderstorm Thunderstorm
6:00 PM 77.0 °F - 68.0 °F 74% 30.04 in 6.2 mi SE 8.1 mph - N/A Thunderstorm Light Thunderstorm
7:00 PM 73.4 °F - 66.2 °F 78% 30.04 in 6.2 mi Calm Calm - N/A Thunderstorm Light Thunderstorm
8:00 PM 71.6 °F - 66.2 °F 83% 30.04 in 6.2 mi Calm Calm - N/A   Partly Cloudy
9:00 PM 71 °F - 67 °F 83%  in 19 mi Calm Calm - -   Partly Cloudy
9:00 PM 71.6 °F - 66.2 °F 83% 30.06 in 6.2 mi Calm Calm - N/A   Scattered Clouds
10:00 PM 69.8 °F - 66.2 °F 88% 30.06 in 6.2 mi Calm Calm - N/A   Scattered Clouds